Domov               UVHVVR             MKGP            O straneh              
ZDRAVSTVENO VARSTVO RASTLIN
  MREŽA AGROMET. POSTAJ
 ► PROGNOSTIČNA OBVESTILA
AGROMETEOROLOŠKI PODATKI -
ARSO
OBVLADOVANJE TVEGANJ ZARADI
NEUGODNIH VREMENSKIH RAZMER
  ► NARAVNE NESREČE
  ► SUŠA/MOČA
  ► NAMAKANJE
  ► ŽLED (gozdarstvo)
KARTOGRAFSKI PRIKAZI
SPLETNE POVEZAVE
PROJEKTI IN PUBLIKACIJE

AGROMETEOROLOŠKA MREŽA: VREMENSKE POSTAJE IN FENOLOŠKA OPAZOVANJA

Pregled podatkov za lokacijo Virštanj, meteorološka postaja 39749

Pregled senzorjev na lokaciji

ID Ime Zadnja
vrednost
Datum
zadnje
spremembe
Tip
senzorja
4316 Omočenost lista (U) 0 U 20.6.2018 16:00 A730WET
3127 Padavine (mm) 0 mm 20.6.2018 16:00 Rain-O-Matic
3125 Relativna vlaga 2 m (% RH) 51,26 % RH 20.6.2018 16:00 50YA
3124 Temperatura 2 m (°C) 28,11 °C 20.6.2018 16:00 50YA

Pregled podatkov zadnjih 24 ur

Zap.
št.
Datum in čas Virštanj
Omočenost
lista
Padavine Relativna
vlaga
2
m
Temperatura
2
m
1 20.6.2018 17:00
2 20.6.2018 16:30
3 20.6.2018 16:00
4 20.6.2018 15:30
5 20.6.2018 15:00 0 0 51,3 28,1
6 20.6.2018 14:30 0 0 53,5 28,4
7 20.6.2018 14:00 0 0 54,5 27,2
8 20.6.2018 13:30 0 0 54 28,3
9 20.6.2018 13:00 0 0 54,2 28,2
10 20.6.2018 12:30 0 0 56,4 26,4
11 20.6.2018 12:00 0 0 55,6 25,8
12 20.6.2018 11:30 0 0 57,3 25,4
13 20.6.2018 11:00 0 0 57,6 24,7
14 20.6.2018 10:30 1 0 60,9 25,1
15 20.6.2018 10:00 1 0 59,4 24,7
16 20.6.2018 09:30 0 0 61,5 23,9
17 20.6.2018 09:00 0 0 63,3 22,2
18 20.6.2018 08:30 0 0 68,2 21,6
19 20.6.2018 08:00 0 0 70,5 20,9
20 20.6.2018 07:30 0 0 71,4 20,1
21 20.6.2018 07:00 0 0 66,5 19,8
22 20.6.2018 06:30 0 0 68 19,4
23 20.6.2018 06:00 0 0 65,3 19,7
24 20.6.2018 05:30 0 0 65,3 19,5
25 20.6.2018 05:00 0 0 67,1 19,2
26 20.6.2018 04:30 0 0 68,4 18,9
27 20.6.2018 04:00 0 0 67,8 19
28 20.6.2018 03:30 0 0 64,7 19,3
29 20.6.2018 03:00 0 0 62,2 19,7
30 20.6.2018 02:30 0 0 62 19,9
31 20.6.2018 02:00 0 0 62,8 19,8
32 20.6.2018 01:30 0 0 61,1 20,4
33 20.6.2018 01:00 0 0 59,7 20,9
34 20.6.2018 00:30 0 0 60,5 20,9
35 20.6.2018 00:00 0 0 59,4 21,3
36 19.6.2018 23:30 0 0 58,2 21,8
37 19.6.2018 23:00 0 0 57,3 22,1
38 19.6.2018 22:30 0 0 56,3 22,4
39 19.6.2018 22:00 0 0 56 22,5
40 19.6.2018 21:30 0 0 55,8 22,6
41 19.6.2018 21:00 0 0 55,6 22,7
42 19.6.2018 20:30 0 0 55 23
43 19.6.2018 20:00 0 0 53,9 23,2
44 19.6.2018 19:30 0 0 53,2 23,6
45 19.6.2018 19:00 0 0 52,8 23,8
46 19.6.2018 18:30 0 0 53,7 23,9
47 19.6.2018 18:00 0 0 52,7 24,2
48 19.6.2018 17:30 0 0 52 24,8
© 2011 Ministrstvo za kmetijstvo, gozdarstvo in prehrano. Vse pravice pridržane.